[[{"header":{"parameterUnit":"m.s-1","parameterCategory":1,"la1":30.2991,"la2":30.254,"lo1":-89.0895,"lo2":-89.0444,"dy":0.0017,"dx":0.0017,"nx":28,"ny":28,"refTime":"2023-09-24T21:00:00:Z","depth":0,"parameterNumber":2,"parameterNumberName":"U-component_of_WINDS"},"data":[0,0,0,0,0,0,0,0,0,0,0,0,0,0,0,0,0,0,0,0,0,0,0,0,0,0,0,0,0,0,0,0,0,0,0,0,0,0,0,0,0,0,0,0,0,0,0,0,0,0,0,0,0,0,0,0,0,0,-1.4699,-1.4699,0,-1.4744,-1.4745,-1.4745,-1.4726,-1.4725,-1.4724,-1.4723,-1.4772,-1.4774,-1.4776,0,0,0,0,0,0,0,0,0,0,0,0,0,-1.4599,-1.4601,-1.4699,-1.4699,-1.47,-1.4744,-1.4745,-1.4745,-1.4727,-1.4725,-1.4724,-1.4723,-1.4771,-1.4774,-1.4777,0,0,0,0,0,0,0,0,0,0,0,0,0,-1.4643,-1.4602,-1.4699,-1.4696,-1.4696,-1.4744,-1.4745,-1.4745,-1.4727,-1.4725,-1.4724,-1.4722,-1.477,-1.4774,-1.4777,-1.4831,0,0,-1.4788,-1.4789,0,0,0,0,0,0,0,0,-1.4641,-1.4647,-1.4696,-1.4696,-1.4696,-1.4728,-1.4727,-1.4774,-1.4727,-1.4715,-1.4723,-1.4721,-1.4759,-1.4763,-1.4775,-1.4833,-1.4835,-1.4788,-1.479,-1.4792,-1.4793,0,0,0,0,0,0,0,-1.4638,-1.4645,-1.4717,-1.4697,-1.4697,-1.4693,-1.4698,-1.4736,-1.4746,-1.4716,-1.4715,-1.472,-1.4759,-1.4772,-1.4776,-1.4836,-1.4788,-1.4791,-1.4793,-1.4794,-1.4941,-1.4943,0,0,0,0,0,0,-1.4634,-1.4642,-1.4715,-1.4718,-1.4664,-1.4696,-1.4701,-1.4719,-1.4745,-1.4747,-1.4722,-1.4719,-1.4767,-1.4772,-1.4778,-1.4843,-1.4791,-1.4795,-1.4797,-1.4939,-1.4941,-1.4943,0,0,0,0,0,0,-1.4632,-1.4641,-1.4714,-1.468,-1.4689,-1.47,-1.472,-1.4721,-1.4734,-1.4749,-1.4751,-1.4733,-1.4766,-1.4773,-1.4818,-1.4844,-1.4796,-1.4799,-1.4937,-1.494,-1.4942,-1.4974,0,0,0,0,0,0,-1.4629,-1.464,-1.466,-1.4681,-1.4691,-1.4752,-1.4722,-1.4723,-1.474,-1.4737,-1.4761,-1.4763,-1.4765,-1.4813,-1.4821,-1.4848,-1.4802,-1.4935,-1.4938,-1.4942,-1.497,-1.4977,-1.4983,0,0,0,0,0,-1.4626,-1.4668,-1.4661,-1.467,-1.4716,-1.4754,-1.476,-1.476,-1.4742,-1.4763,-1.4773,-1.4762,-1.484,-1.4817,-1.4827,-1.4855,-1.4933,-1.4937,-1.4941,-1.4967,-1.4976,-1.4983,0,0,0,0,0,0,-1.4652,-1.467,-1.4664,-1.4713,-1.4732,-1.475,-1.4777,-1.4769,-1.4794,-1.4791,-1.4791,-1.4796,-1.4843,-1.4854,-1.4828,-1.4909,-1.4884,-1.489,-1.4901,-1.4909,-1.4915,-1.4912,-1.4805,0,0,0,0,0,-1.4663,-1.4691,-1.4706,-1.4749,-1.4758,-1.4766,-1.4782,-1.4781,-1.4801,-1.4809,-1.4822,-1.4842,-1.4871,-1.489,-1.4918,-1.4971,-1.4977,-1.4996,-1.5002,-1.5007,-1.5013,-1.5043,-1.5051,-1.4957,-1.4957,-1.4957,0,0,-1.4687,-1.47,-1.4718,-1.4754,-1.4768,-1.4799,-1.4773,-1.4806,-1.4828,-1.4814,-1.4857,-1.4867,-1.489,-1.494,-1.4962,-1.495,-1.504,-1.5012,-1.5016,-1.5019,-1.5048,-1.5057,-1.5065,-1.496,-1.4959,-1.4959,0,0,-1.4746,-1.4758,-1.4795,-1.481,-1.4832,-1.4836,-1.4845,-1.4865,-1.4871,-1.4914,-1.4904,-1.4931,-1.4981,-1.4998,-1.5013,-1.5078,-1.507,-1.5087,-1.512,-1.5149,-1.5157,-1.5163,-1.5187,-1.5196,-1.5092,-1.5092,-1.5092,0,-1.4773,-1.4817,-1.4815,-1.4849,-1.4865,-1.4853,-1.4891,-1.4905,-1.4935,-1.4947,-1.4933,-1.4995,-1.501,-1.5063,-1.5079,-1.5091,-1.5102,-1.5085,-1.5156,-1.5162,-1.5169,-1.5191,-1.52,-1.5094,-1.5094,-1.5094,-1.5094,0,-1.485,-1.4881,-1.4908,-1.4936,-1.4955,-1.4991,-1.4996,-1.5015,-1.5012,-1.5019,-1.5063,-1.508,-1.5111,-1.5123,-1.5121,-1.5177,-1.5169,-1.5155,-1.513,-1.518,-1.5201,-1.521,-1.5097,-1.5097,-1.5096,-1.5095,0,0,-1.4927,-1.4953,-1.4964,-1.4976,-1.4999,-1.5023,-1.5059,-1.5088,-1.5105,-1.5126,-1.5157,-1.5199,-1.5186,-1.5203,-1.5203,-1.5228,-1.5279,-1.5212,-1.5212,-1.5224,-1.5343,-1.5354,-1.5364,-1.5274,-1.5275,-1.5277,-1.5341,0,-1.4989,-1.5049,-1.5049,-1.5105,-1.5134,-1.5123,-1.5154,-1.5171,-1.5178,-1.5204,-1.5212,-1.5243,-1.5223,-1.5234,-1.5258,-1.5268,-1.5303,-1.5263,-1.5303,-1.5304,-1.5298,-1.5375,-1.5386,-1.5446,-1.5349,-1.5351,-1.5352,0,-1.5069,-1.5091,-1.515,-1.5169,-1.5181,-1.5209,-1.5236,-1.526,-1.528,-1.5284,-1.5303,-1.5298,-1.5335,-1.5308,-1.5359,-1.5332,-1.5348,-1.5355,-1.5358,-1.5362,-1.5332,-1.5382,-1.5465,-1.5475,-1.5365,-1.5364,-1.5363,0,-1.512,-1.5165,-1.5207,-1.5218,-1.524,-1.526,-1.5271,-1.5289,-1.5307,-1.533,-1.5342,-1.537,-1.5386,-1.5408,-1.5411,-1.5391,-1.5463,-1.5436,-1.5468,-1.5468,-1.5484,-1.5483,-1.5572,-1.5493,-1.5493,-1.5493,-1.5493,0,-1.5189,-1.5226,-1.523,-1.5256,-1.5297,-1.5296,-1.5337,-1.5346,-1.5363,-1.539,-1.5382,-1.5409,-1.5411,-1.5439,-1.5442,-1.5484,-1.5491,-1.5496,-1.5496,-1.5497,-1.5496,-1.5508,-1.5504,-1.5495,-1.5495,-1.5494,-1.5494,0,-1.5254,-1.5258,-1.5303,-1.532,-1.5325,-1.5355,-1.537,-1.5395,-1.5401,-1.5436,-1.5444,-1.5454,-1.5486,-1.5491,-1.5529,-1.5531,-1.5582,-1.5578,-1.5575,-1.5575,-1.5606,-1.5603,-1.5706,-1.572,-1.5631,-1.5632,-1.5633,0,-1.5299,-1.5327,-1.5347,-1.5364,-1.5375,-1.5404,-1.5421,-1.5421,-1.544,-1.5465,-1.5488,-1.5518,-1.5543,-1.5595,-1.5606,-1.5635,-1.5632,-1.5666,-1.5636,-1.5636,-1.5633,-1.5632,-1.5635,-1.5672,-1.5673,-1.5674,-1.5674,0,-1.5378,-1.5378,-1.5403,-1.5429,-1.545,-1.5471,-1.549,-1.5506,-1.5508,-1.553,-1.5562,-1.5581,-1.5619,-1.565,-1.5679,-1.5691,-1.5684,-1.5683,-1.5692,-1.5694,-1.5691,-1.5694,-1.5591,-1.5681,-1.568,-1.568,-1.568,-1.5679,-1.5435,-1.5459,-1.5477,-1.5505,-1.5519,-1.5538,-1.5562,-1.557,-1.5596,-1.5627,-1.5625,-1.5661,-1.5681,-1.5718,-1.5732,-1.576,-1.5749,-1.5762,-1.5766,-1.5769,-1.5773,-1.5686,-1.5765,-1.5765,-1.5765,-1.5765,-1.5765,0,-1.5514,-1.5524,-1.555,-1.5577,-1.56,-1.5589,-1.561,-1.563,-1.5661,-1.5679,-1.5704,-1.5741,-1.5771,-1.5783,-1.5813,-1.5833,-1.5831,-1.5841,-1.584,-1.5843,-1.578,-1.577,-1.5843,-1.5843,-1.5843,-1.5843,-1.5843,-1.5843,-1.5558,-1.5599,-1.5601,-1.5649,-1.566,-1.5693,-1.5706,-1.5724,-1.5738,-1.5779,-1.5804,-1.5811,-1.5828,-1.5859,-1.5886,-1.5889,-1.5901,-1.5913,-1.5915,-1.5856,-1.5848,-1.584,-1.5831,-1.5915,-1.5916,-1.5976,-1.5977,-1.5977]},{"header":{"parameterUnit":"m.s-1","parameterCategory":1,"la1":30.2991,"la2":30.254,"lo1":-89.0895,"lo2":-89.0444,"dy":0.0017,"dx":0.0017,"nx":28,"ny":28,"refTime":"2023-09-24T21:00:00:Z","depth":0,"parameterNumber":3,"parameterNumberName":"V-component_of_WINDS"},"data":[0,0,0,0,0,0,0,0,0,0,0,0,0,0,0,0,0,0,0,0,0,0,0,0,0,0,0,0,0,0,0,0,0,0,0,0,0,0,0,0,0,0,0,0,0,0,0,0,0,0,0,0,0,0,0,0,0,0,2.3194,2.3194,0,2.3187,2.3187,2.3187,2.3151,2.315,2.315,2.3149,2.3141,2.3142,2.3143,0,0,0,0,0,0,0,0,0,0,0,0,0,2.3176,2.3177,2.3194,2.3194,2.3194,2.3187,2.3187,2.3187,2.3151,2.315,2.3149,2.3148,2.3141,2.3142,2.3143,0,0,0,0,0,0,0,0,0,0,0,0,0,2.3178,2.3177,2.3194,2.3175,2.3174,2.3187,2.3187,2.3187,2.3152,2.315,2.3149,2.3148,2.3141,2.3142,2.3143,2.3174,0,0,2.3146,2.3146,0,0,0,0,0,0,0,0,2.3178,2.3179,2.3178,2.3177,2.3175,2.3169,2.3178,2.3182,2.3152,2.316,2.3149,2.3147,2.3152,2.3151,2.3153,2.3173,2.3173,2.3146,2.3146,2.3147,2.3147,0,0,0,0,0,0,0,2.3178,2.3179,2.3191,2.3178,2.3176,2.3167,2.3166,2.3179,2.3163,2.3159,2.3157,2.3156,2.315,2.3152,2.3153,2.3173,2.3146,2.3146,2.3147,2.3147,2.3217,2.3219,0,0,0,0,0,0,2.3181,2.3179,2.3191,2.3191,2.3173,2.3169,2.3167,2.3172,2.3163,2.316,2.3157,2.3155,2.3151,2.3152,2.3152,2.3186,2.3147,2.3147,2.3148,2.3216,2.3218,2.3219,0,0,0,0,0,0,2.318,2.3182,2.3192,2.3184,2.3185,2.317,2.3176,2.3172,2.3174,2.3161,2.3158,2.3162,2.315,2.3151,2.3168,2.3186,2.3148,2.3149,2.3214,2.3216,2.3218,2.3256,0,0,0,0,0,0,2.318,2.3182,2.3194,2.3185,2.3185,2.3208,2.3177,2.3173,2.3176,2.3172,2.3165,2.3163,2.3149,2.3167,2.3169,2.3186,2.3149,2.3213,2.3215,2.3218,2.3253,2.3259,2.3265,0,0,0,0,0,2.3179,2.3205,2.3194,2.3196,2.32,2.3209,2.3209,2.3194,2.3177,2.3189,2.318,2.3163,2.3184,2.3169,2.3171,2.3189,2.3212,2.3215,2.3218,2.3251,2.3258,2.3264,0,0,0,0,0,0,2.3216,2.3203,2.3192,2.3215,2.3213,2.3203,2.3217,2.3202,2.3205,2.3202,2.3182,2.3181,2.3201,2.3197,2.3181,2.3218,2.3195,2.3198,2.3219,2.3226,2.3232,2.3232,2.315,0,0,0,0,0,2.3227,2.3236,2.3224,2.3246,2.3246,2.3232,2.3235,2.3223,2.3221,2.322,2.3213,2.3211,2.3218,2.3222,2.3227,2.3253,2.3251,2.3267,2.3272,2.3277,2.3279,2.3292,2.3298,2.3229,2.3229,2.3229,0,0,2.3249,2.3243,2.325,2.3253,2.3251,2.326,2.3231,2.3243,2.3249,2.3222,2.3237,2.3233,2.3229,2.3251,2.326,2.3248,2.3298,2.328,2.3284,2.3284,2.3296,2.3302,2.3308,2.3231,2.323,2.323,0,0,2.3294,2.3291,2.3308,2.3306,2.3303,2.3293,2.3298,2.329,2.3285,2.3301,2.328,2.3288,2.3299,2.3298,2.3298,2.3343,2.3327,2.3346,2.3374,2.3386,2.3392,2.3396,2.3411,2.3417,2.3349,2.3349,2.3349,0,2.3322,2.3335,2.3319,2.3331,2.3333,2.3309,2.3326,2.3325,2.3323,2.3325,2.3312,2.3325,2.3322,2.3342,2.3353,2.3355,2.3358,2.3345,2.3392,2.3397,2.3401,2.3415,2.3421,2.3351,2.3351,2.3351,2.335,0,2.3369,2.3379,2.3393,2.3392,2.3395,2.341,2.3396,2.3401,2.339,2.3382,2.3397,2.3392,2.3396,2.34,2.3389,2.3419,2.3411,2.3396,2.3372,2.341,2.3423,2.3428,2.3354,2.3353,2.3353,2.3352,0,0,2.3435,2.3425,2.3431,2.343,2.3424,2.3431,2.3445,2.3448,2.3453,2.3453,2.3463,2.3474,2.3459,2.346,2.3448,2.346,2.3494,2.3442,2.3442,2.3451,2.3526,2.3536,2.3543,2.3484,2.3485,2.3486,2.3525,0,2.3477,2.3499,2.3485,2.351,2.3518,2.3496,2.3508,2.3506,2.3499,2.3505,2.3497,2.3504,2.3485,2.3485,2.3496,2.3488,2.3508,2.3485,2.3492,2.3493,2.3492,2.3549,2.3561,2.3598,2.353,2.3531,2.3532,0,2.3528,2.353,2.3555,2.3548,2.3551,2.3562,2.3563,2.357,2.3567,2.3561,2.3562,2.3548,2.3561,2.3538,2.3555,2.3539,2.3542,2.3539,2.354,2.3538,2.3513,2.3548,2.361,2.3615,2.354,2.3539,2.3538,0,2.3572,2.3581,2.3597,2.3597,2.3589,2.3597,2.3595,2.3591,2.3593,2.3595,2.3596,2.36,2.3601,2.3604,2.3591,2.3576,2.3609,2.3586,2.3604,2.3604,2.3611,2.361,2.3672,2.3615,2.3615,2.3615,2.3615,0,2.3619,2.3635,2.3617,2.3626,2.3643,2.3628,2.3645,2.364,2.3637,2.3645,2.3627,2.3635,2.3618,2.3624,2.3614,2.3629,2.363,2.3625,2.3622,2.3626,2.3626,2.3626,2.3623,2.3616,2.3616,2.3616,2.3616,0,2.367,2.3659,2.3674,2.3666,2.3664,2.3677,2.367,2.3678,2.3671,2.3681,2.3683,2.367,2.3677,2.3665,2.367,2.3663,2.3684,2.3677,2.3684,2.3682,2.37,2.3698,2.3763,2.377,2.371,2.371,2.3711,0,2.3699,2.3711,2.3704,2.3708,2.3706,2.3713,2.3716,2.3701,2.3705,2.3703,2.3711,2.3717,2.3719,2.3731,2.3722,2.3726,2.3719,2.3741,2.3719,2.3722,2.3717,2.3716,2.3717,2.3745,2.3746,2.3747,2.3747,0,2.3753,2.3747,2.3751,2.3754,2.3758,2.3759,2.3759,2.3764,2.3748,2.3753,2.3759,2.3762,2.3767,2.3772,2.3774,2.3771,2.3756,2.3755,2.3759,2.3762,2.3765,2.3762,2.3695,2.3753,2.3752,2.3752,2.3752,2.3751,2.3793,2.3802,2.3798,2.3804,2.3803,2.3803,2.3811,2.3804,2.3809,2.3812,2.3803,2.3812,2.3809,2.381,2.3808,2.3814,2.3804,2.3811,2.3812,2.3813,2.3816,2.3765,2.3815,2.3815,2.3815,2.3814,2.3814,0,2.3844,2.3841,2.3846,2.3847,2.3851,2.3838,2.3838,2.3842,2.385,2.3848,2.3852,2.3859,2.3864,2.3856,2.386,2.3866,2.386,2.3868,2.3866,2.3866,2.3825,2.382,2.3873,2.3873,2.3873,2.3873,2.3873,2.3873,2.3871,2.3885,2.3879,2.3893,2.3889,2.3897,2.3898,2.3898,2.3897,2.3906,2.391,2.3905,2.3901,2.3904,2.3908,2.3906,2.3907,2.3917,2.3913,2.3874,2.3869,2.3863,2.3859,2.3918,2.3918,2.3952,2.3953,2.3953]}]]